SCP
2 2 3 3 3 2 2 2 2 2 1 1 2 2 2 2 2 2 2 2 2 1 1 1 1 1 1 1 1 1 1 1 1 1 1 1 1 1 1 1 1 1 1
2 2 3 3 3 2 2 2 2 2 1 1 1 2 2 2 2 2 2 2 2 1 1 1 1 1 1 1 1 1 1 1 1 1 1 1 1 2 2 2 1 1 1
2 2 3 3 3 3 2 2 2 2 1 1 1 1 2 2 2 2 2 2 1 1 1 1 1 1 1 1 1 1 1 1 1 1 1 1 1 2 2 2 2 2 1
2 3 3 3 3 3 3 3 2 2 2 1 1 1 1 2 2 2 2 2 1 1 1 1 1 1 1 1 1 1 1 1 1 2 2 1 1 1 2 2 2 2 1
3 3 3 4 4 3 3 3 2 2 2 1 1 1 1 1 1 2 2 1 1 1 1 1 1 1 1 1 1 1 1 1 2 2 1 1 1 1 2 2 2 2 2
3 4 4 4 4 4 4 4 3 2 2 2 1 2 2 2 1 1 1 1 1 1 1 1 1 1 1 1 1 1 1 2 2 1 1 1 1 1 2 2 2 1 2
4 4 4 4 4 4 5 4 4 3 2 2 2 2 2 2 2 1 1 1 1 1 1 1 1 1 1 1 1 1 1 1 1 1 1 1 1 1 1 1 1 1 1
4 4 4 4 4 5 5 5 4 4 3 2 2 1 1 2 2 1 1 1 1 1 1 1 1 1 1 1 1 1 1 1 2 2 1 1 1 1 1 1 1 1 1
3 4 4 4 4 4 5 5 5 4 3 3 2 2 1 1 1 1 1 1 1 1 1 1 1 1 1 1 1 1 1 2 2 2 2 1 1 1 1 1 1 1 1
4 4 3 3 3 3 4 4 4 4 3 3 3 2 2 1 1 2 2 1 1 1 1 1 1 1 1 1 2 2 2 2 2 2 2 2 1 1 1 1 1 2 1
3 3 3 2 3 3 4 4 4 3 3 3 3 3 2 1 1 1 1 1 2 2 1 1 1 1 2 2 2 2 2 2 2 2 2 2 1 1 1 1 1 2 1
3 3 2 2 3 4 4 4 4 3 3 3 3 3 2 2 1 1 1 1 1 1 1 1 1 1 1 1 1 1 1 1 1 2 2 1 1 1 1 1 1 1 1
3 3 3 3 4 5 5 5 5 4 4 4 3 3 2 2 2 1 1 1 1 1 1 1 1 1 1 1 1 1 1 1 1 1 1 1 1 1 1 1 1 1 1
3 4 4 4 5 6 6 6 6 5 4 4 4 4 3 2 2 2 2 1 1 1 1 1 1 1 0 0 0 0 0 0 1 1 1 1 1 1 1 1 1 1 1
3 4 4 4 5 6 7 7 6 5 5 5 5 5 4 3 2 2 2 1 1 1 1 1 1 0 0 0 0 0 1 1 1 0 1 1 1 1 1 1 1 1 1
2 3 4 4 5 6 6 7 6 6 5 5 5 5 5 4 3 2 2 1 1 1 1 1 1 1 0 0 0 1 1 1 1 0 1 1 1 1 1 1 1 1 1
2 3 3 4 4 5 5 6 6 6 6 6 5 5 5 5 4 2 2 1 1 1 1 1 1 1 1 1 1 1 1 1 1 0 0 1 1 1 1 1 1 2 2
3 3 3 3 4 4 5 5 6 7 6 6 5 5 5 5 4 3 2 2 2 1 1 1 1 1 1 1 1 1 1 1 1 0 0 1 1 1 1 1 2 2 2
4 4 4 4 3 3 4 5 5 6 5 5 5 4 4 4 4 4 3 2 2 2 2 2 2 2 2 1 1 1 1 1 1 1 1 1 1 1 1 1 2 2 2
5 5 5 4 3 3 3 4 4 4 4 4 4 4 3 4 4 4 3 3 2 2 2 2 2 2 2 2 1 1 1 1 1 1 1 1 1 1 1 1 2 2 2
4 5 5 4 3 3 3 3 3 3 3 3 3 4 3 3 3 3 3 3 3 3 3 3 3 3 3 2 2 1 1 1 1 1 1 1 1 1 1 1 2 2 2
3 4 5 5 4 4 4 4 4 4 3 3 3 4 4 4 4 3 3 3 4 4 4 4 4 3 3 3 3 2 2 1 1 1 1 1 1 1 2 2 2 3 3
3 4 4 5 5 5 5 5 5 5 4 3 3 4 4 5 5 4 3 3 4 5 4 4 4 4 4 3 3 3 3 2 1 1 1 1 2 2 2 3 4 4 4
4 4 4 5 5 5 6 6 6 5 4 3 3 4 5 5 5 5 4 3 4 5 5 5 5 5 4 4 4 5 4 3 2 2 2 2 2 3 3 4 4 5 5
4 4 5 5 5 5 6 7 6 5 3 3 3 4 4 4 4 4 4 3 4 5 5 5 5 5 5 5 6 6 6 5 4 3 3 2 3 4 4 4 4 5 5
4 4 5 5 5 5 6 6 6 4 3 3 3 4 4 4 3 3 3 3 4 5 6 6 6 6 6 6 7 7 8 7 5 4 4 3 4 4 4 4 4 5 5
Wind_Speed
5 7 13 13 12 12 12 13 13 12 12 12 12 12 12 12 12 11 11 11 11 11 12 12 12 12 13 13 13 13 13 13 12 13 13 13 13 13 13 13 13 10 14
9 9 13 13 13 12 13 13 12 12 12 12 12 12 12 12 11 11 11 10 10 11 11 12 12 11 12 12 12 12 12 12 12 12 12 11 12 12 12 12 12 8 13
11 9 11 13 13 13 13 13 12 12 12 12 11 12 11 11 11 11 10 10 10 10 10 10 11 10 10 10 11 11 12 12 11 11 10 6 8 11 11 11 11 12 12
11 9 10 13 13 13 13 13 12 12 12 12 11 11 11 11 10 10 10 9 9 9 9 9 9 9 9 9 10 10 11 11 11 10 6 5 5 10 11 11 11 11 11
10 8 10 15 13 13 13 13 12 12 12 12 11 11 11 11 10 9 9 9 9 8 8 8 8 8 8 9 9 9 9 10 10 8 5 4 4 8 10 10 10 10 10
9 7 9 15 14 13 13 12 12 12 12 11 11 10 10 10 9 9 9 8 8 8 8 8 8 8 8 8 8 8 9 8 7 5 4 4 4 7 9 9 10 9 10
9 7 8 14 14 13 13 12 12 12 11 10 10 10 9 9 8 8 8 8 7 7 7 7 7 7 7 7 8 8 8 8 6 5 4 4 4 7 8 8 8 8 9
9 7 7 14 14 14 13 12 12 11 11 10 9 9 8 8 7 7 6 6 6 6 6 6 6 6 6 6 7 7 7 7 6 5 4 4 5 7 8 8 7 7 8
7 6 5 7 9 13 13 12 12 11 11 10 9 8 8 7 6 6 5 5 5 5 5 5 5 5 5 5 6 6 6 7 4 3 4 3 5 8 8 8 8 7 8
6 5 5 4 5 5 7 12 12 11 11 10 9 8 8 7 6 5 4 4 4 4 5 4 4 4 4 5 5 4 5 4 3 3 2 3 6 8 9 8 8 7 8
7 5 5 5 4 4 4 8 9 10 10 9 7 8 6 3 2 2 3 4 4 4 4 4 3 3 4 4 4 4 3 1 2 2 2 6 7 8 8 8 8 8 8
9 8 6 6 5 5 5 4 3 4 4 4 3 4 3 2 2 2 2 3 3 3 3 3 3 3 2 1 2 2 1 1 2 2 3 7 8 9 9 8 8 8 8
9 8 7 6 6 5 3 3 2 2 2 3 3 4 3 2 1 1 1 1 1 2 1 1 2 1 1 1 1 1 1 1 1 1 3 7 8 9 9 8 8 8 8
8 8 7 7 6 6 4 3 3 3 2 2 3 4 3 2 2 1 1 1 1 1 1 1 1 1 1 1 1 1 1 1 1 1 2 6 7 9 9 9 8 8 7
7 8 7 7 7 6 5 4 4 4 4 3 3 3 4 3 2 2 1 1 1 1 1 1 1 1 1 0 1 1 1 1 2 2 2 5 7 8 9 9 9 9 8
8 8 7 7 7 7 5 4 4 4 4 4 4 4 5 4 3 3 2 1 1 1 1 1 1 1 0 0 1 1 1 1 2 2 2 3 6 7 9 9 9 9 8
9 8 7 8 7 7 6 5 4 4 4 4 4 4 5 4 4 3 2 2 1 1 1 1 1 0 0 1 1 1 1 2 2 3 3 2 3 5 7 8 8 9 9
7 8 8 8 8 7 6 5 3 4 4 3 3 3 5 5 5 3 2 2 2 2 2 1 1 1 1 1 1 1 1 1 2 2 2 2 2 2 5 7 7 8 8
7 8 7 7 8 7 6 4 4 3 4 3 3 3 4 5 5 4 3 2 2 2 2 2 1 1 1 1 1 1 1 1 2 2 2 2 2 2 2 4 7 8 8
6 6 7 6 6 5 4 3 2 3 3 3 3 4 4 4 5 4 3 3 3 2 2 2 2 1 1 1 1 1 2 2 1 2 2 2 2 3 2 2 3 5 8
5 6 7 7 6 5 4 4 4 3 3 3 3 4 5 4 5 5 4 3 3 3 3 3 2 2 1 1 1 1 2 1 1 2 2 2 3 3 3 3 3 3 3
5 6 6 7 7 6 5 4 3 3 2 2 2 3 4 5 5 5 4 4 4 3 3 3 3 2 1 1 2 1 1 2 2 2 1 2 2 2 3 4 3 3 3
5 6 6 6 6 6 5 3 2 2 1 1 2 2 3 4 5 4 5 4 4 4 4 4 4 4 3 1 1 2 2 2 2 2 2 2 2 2 3 3 4 4 4
5 5 5 5 6 5 5 5 6 4 4 4 3 3 2 3 4 4 4 4 4 3 4 4 4 3 3 2 1 1 1 2 2 1 2 1 2 2 3 3 4 4 4
3 4 4 5 4 4 5 6 6 4 3 2 2 3 3 3 3 4 4 4 4 3 4 3 3 3 3 3 3 2 2 1 1 2 2 2 2 2 2 3 3 3 3
2 3 3 3 3 4 4 5 5 5 4 4 3 3 3 2 3 4 4 4 4 4 4 4 4 4 4 3 3 2 2 2 2 2 3 2 2 2 2 2 3 3 3
Wind_Direction
166 159 161 152 146 140 134 131 128 124 121 119 119 119 121 122 120 119 118 116 116 115 114 116 116 116 119 120 121 125 128 128 127 127 127 129 129 130 129 126 126 125 127
149 154 159 154 149 143 138 134 132 129 126 123 123 123 121 120 121 120 119 118 116 116 117 118 119 119 121 124 126 128 131 134 133 133 132 130 132 134 133 131 132 131 130
141 150 156 155 151 147 142 138 135 134 130 128 126 125 123 121 121 121 120 119 118 116 118 121 122 124 125 125 126 130 132 136 137 135 130 122 130 135 136 137 137 136 135
142 146 154 156 153 149 146 142 140 138 134 131 128 126 127 124 123 123 123 122 121 119 118 121 122 126 130 131 131 135 137 140 142 136 126 126 135 142 143 143 142 142 142
140 146 158 158 156 153 150 147 144 142 139 136 133 130 130 127 124 125 125 124 123 121 120 120 121 124 128 132 134 139 142 142 142 136 133 132 134 150 151 152 150 149 149
142 148 160 159 158 156 153 151 149 146 143 141 139 135 133 130 127 128 127 125 124 123 122 122 123 123 125 128 131 137 140 142 137 132 134 141 148 162 162 159 156 154 155
147 152 161 159 160 158 156 154 152 149 146 144 142 138 136 132 130 130 129 128 126 125 126 124 124 121 121 126 130 133 135 140 128 132 142 154 165 169 168 163 161 161 164
150 153 159 164 162 161 159 156 153 151 149 147 145 143 139 136 133 130 131 130 129 124 121 120 123 125 125 126 131 139 140 136 133 139 147 160 173 178 175 174 168 165 167
146 151 157 164 164 163 161 158 155 154 152 151 151 148 145 141 137 136 136 134 135 134 129 126 125 130 131 130 133 141 146 147 135 144 164 168 183 185 183 183 178 173 171
144 156 158 156 155 159 162 162 159 157 156 155 156 153 148 143 140 143 138 141 144 142 137 131 127 124 128 134 140 147 150 151 142 155 173 182 191 193 192 192 186 180 179
161 168 167 162 157 153 159 168 163 162 161 158 158 157 145 125 121 133 142 146 145 143 139 131 128 122 119 131 148 157 151 142 148 168 183 192 196 199 200 199 192 191 187
179 181 179 174 168 163 172 161 154 156 154 148 141 140 125 115 120 129 139 147 145 140 140 128 117 109 104 103 129 140 128 149 161 188 199 201 205 205 207 207 201 198 193
180 181 182 181 173 172 170 158 150 140 140 142 145 139 129 122 115 99 98 107 109 113 85 81 74 70 90 112 109 118 147 175 195 213 211 209 213 212 210 211 208 204 197
174 186 181 179 176 180 172 164 157 154 155 159 160 150 144 147 148 137 127 114 98 94 94 79 83 79 83 121 143 154 180 194 205 221 226 219 219 216 215 216 213 210 205
178 184 179 176 178 178 173 174 172 171 171 169 167 168 164 165 169 153 140 130 133 120 125 125 120 111 107 138 184 187 204 218 220 216 236 231 226 222 220 217 215 215 213
185 185 178 177 178 175 177 180 181 180 174 172 178 183 177 172 171 161 158 166 177 159 153 144 152 153 183 199 226 218 220 229 231 230 233 244 242 231 222 219 218 213 212
185 181 179 181 176 178 181 185 183 182 177 183 187 185 185 181 173 171 173 182 191 165 151 127 117 136 194 215 252 252 245 245 235 237 232 237 246 240 229 221 217 212 213
176 177 184 185 179 182 183 183 178 179 183 188 185 185 190 189 179 171 179 194 182 157 155 153 165 187 233 227 245 261 263 259 251 243 236 236 241 247 238 223 212 210 214
180 177 181 182 180 182 180 175 171 172 187 189 184 190 196 193 184 177 188 193 173 161 172 186 170 179 207 233 249 267 277 267 263 246 238 237 237 240 238 231 222 220 221
177 173 178 182 180 170 161 152 150 160 177 180 187 197 194 194 188 181 187 184 174 169 178 178 173 168 181 203 264 303 297 283 271 251 246 244 243 239 231 227 229 237 234
167 171 179 179 175 164 167 171 172 186 186 189 199 194 192 196 191 184 193 183 181 184 190 184 174 162 162 134 96 335 320 302 272 261 244 238 246 243 229 221 222 229 243
177 181 182 180 176 177 180 177 174 166 178 186 201 198 187 191 193 193 190 190 186 180 182 181 170 163 173 152 148 120 334 325 305 275 244 230 248 247 237 230 221 221 231
179 186 186 179 175 177 167 143 121 103 98 162 196 206 195 190 191 192 192 190 188 185 190 193 186 178 185 185 165 154 162 235 292 302 265 245 241 233 241 238 227 226 229
193 178 169 166 167 167 162 168 170 178 188 199 194 191 188 191 195 191 187 185 185 189 191 195 188 180 171 186 183 189 183 168 179 291 308 293 269 242 243 241 236 230 227
186 171 165 156 156 160 167 173 178 184 183 159 158 174 183 186 196 195 185 181 183 190 196 192 181 181 180 184 184 178 188 179 177 190 267 301 311 272 253 244 237 234 229
147 145 140 153 162 166 162 166 174 174 161 154 166 181 188 187 196 200 190 186 188 189 196 198 190 189 192 188 190 183 178 182 191 189 223 251 272 280 279 258 245 239 237